When you browse on this site, cookies collect data to enhance your experience and personalize the content and advertising you see.
Visit our Privacy Policy to learn more. By continuing to use the site, you agree to this use of cookies and data.
  • In Spain
  • List of Countries
  • For 7 days
  • Water Temperature
  • Satellite Maps
  • Weather Map
  • Weather Widgets
  • user-avatar
    Login

    Hourly Weather Verhnie Domanichi

    Today, 17 July, Wednesday

    Time Temperature Precipitation Wind Pressure Humidity
    00:00 +10°C° 0 mm 0 mps 736 mmHg 92%
    01:00 +10°C° 0 mm 0 mps 736 mmHg 92%
    02:00 +10°C° 0 mm 0 mps 736 mmHg 91%
    03:00 +12°C° 0 mm 1 mps 736 mmHg 91%
    04:00 +12°C° 0 mm 1 mps 736 mmHg 91%
    05:00 +12°C° 0 mm 2 mps 736 mmHg 91%
    06:00 +14°C° 0 mm 2 mps 736 mmHg 87%
    07:00 +15°C° 0 mm 1 mps 735 mmHg 83%
    08:00 +16°C° 0 mm 1 mps 735 mmHg 77%
    09:00 +18°C° 0.3 mm 1 mps 735 mmHg 76%
    10:00 +19°C° 0.3 mm 1 mps 735 mmHg 74%
    11:00 +20°C° 0.3 mm 1 mps 735 mmHg 73%
    12:00 +20°C° 0.1 mm 1 mps 735 mmHg 70%
    13:00 +21°C° 0.1 mm 1 mps 735 mmHg 67%
    14:00 +21°C° 0.1 mm 1 mps 734 mmHg 65%
    15:00 +21°C° 0.1 mm 1 mps 734 mmHg 67%
    16:00 +20°C° 0.1 mm 1 mps 734 mmHg 70%
    17:00 +20°C° 0.1 mm 1 mps 734 mmHg 73%
    18:00 +19°C° 0.2 mm 1 mps 734 mmHg 77%
    19:00 +18°C° 0.2 mm 1 mps 734 mmHg 81%
    20:00 +15°C° 0.2 mm 1 mps 734 mmHg 84%
    21:00 +15°C° 0.1 mm 1 mps 734 mmHg 85%
    22:00 +15°C° 0.1 mm 1 mps 734 mmHg 85%
    23:00 +14°C° 0.1 mm 0 mps 734 mmHg 85%

    Tomorrow, 18 July, Thursday

    Time Temperature Precipitation Wind Pressure Humidity
    00:00 +14°C° 0.1 mm 1 mps 734 mmHg 87%
    01:00 +14°C° 0.1 mm 1 mps 734 mmHg 88%
    02:00 +14°C° 0.1 mm 1 mps 734 mmHg 90%
    03:00 +14°C° 0.2 mm 1 mps 733 mmHg 91%
    04:00 +13°C° 0.2 mm 1 mps 733 mmHg 92%
    05:00 +12°C° 0.2 mm 0 mps 733 mmHg 93%
    06:00 +14°C° 0.2 mm 1 mps 733 mmHg 91%
    07:00 +15°C° 0.2 mm 1 mps 733 mmHg 89%
    08:00 +16°C° 0.2 mm 1 mps 733 mmHg 88%
    09:00 +16°C° 0.9 mm 2 mps 733 mmHg 88%
    10:00 +16°C° 0.9 mm 3 mps 733 mmHg 89%
    11:00 +17°C° 0.9 mm 4 mps 733 mmHg 89%
    12:00 +17°C° 0.4 mm 4 mps 733 mmHg 89%
    13:00 +17°C° 0.4 mm 4 mps 733 mmHg 88%
    14:00 +17°C° 0.4 mm 4 mps 733 mmHg 87%
    15:00 +15°C° 0.2 mm 4 mps 733 mmHg 88%
    16:00 +15°C° 0.2 mm 4 mps 733 mmHg 90%
    17:00 +15°C° 0.2 mm 4 mps 734 mmHg 91%
    18:00 +14°C° 0.4 mm 3 mps 734 mmHg 93%
    19:00 +14°C° 0.4 mm 3 mps 734 mmHg 95%
    20:00 +15°C° 0.4 mm 2 mps 734 mmHg 97%
    21:00 +13°C° 0.1 mm 3 mps 734 mmHg 97%
    22:00 +13°C° 0.1 mm 3 mps 734 mmHg 97%
    23:00 +13°C° 0.1 mm 3 mps 734 mmHg 97%

    Day after tomorrow, 19 July, Friday

    Time Temperature Precipitation Wind Pressure Humidity
    00:00 +13°C° 0.7 mm 3 mps 734 mmHg 97%
    01:00 +13°C° 0.7 mm 4 mps 734 mmHg 97%
    02:00 +13°C° 0.7 mm 5 mps 734 mmHg 98%
    03:00 +13°C° 0.2 mm 5 mps 734 mmHg 97%
    04:00 +14°C° 0.2 mm 5 mps 735 mmHg 97%
    05:00 +14°C° 0.2 mm 5 mps 735 mmHg 97%
    06:00 +14°C° 0.1 mm 5 mps 735 mmHg 96%
    07:00 +14°C° 0.1 mm 5 mps 735 mmHg 95%
    08:00 +14°C° 0.1 mm 6 mps 736 mmHg 94%
    09:00 +14°C° 0.1 mm 6 mps 736 mmHg 93%
    10:00 +15°C° 0.1 mm 6 mps 736 mmHg 91%
    11:00 +15°C° 0.1 mm 6 mps 737 mmHg 90%
    12:00 +16°C° 0.5 mm 6 mps 737 mmHg 88%
    13:00 +17°C° 0.5 mm 6 mps 737 mmHg 86%
    14:00 +17°C° 0.5 mm 6 mps 738 mmHg 84%
    15:00 +17°C° 0.4 mm 6 mps 738 mmHg 85%
    16:00 +17°C° 0.4 mm 6 mps 738 mmHg 85%
    17:00 +16°C° 0.4 mm 5 mps 738 mmHg 86%
    18:00 +16°C° 0 mm 5 mps 739 mmHg 87%
    19:00 +15°C° 0 mm 4 mps 739 mmHg 89%
    20:00 +14°C° 0 mm 3 mps 739 mmHg 91%
    21:00 +14°C° 0 mm 3 mps 739 mmHg 91%
    22:00 +14°C° 0 mm 4 mps 740 mmHg 92%
    23:00 +14°C° 0 mm 4 mps 740 mmHg 92%

    20 July, Saturday

    Time Temperature Precipitation Wind Pressure Humidity
    00:00 +13°C° 0 mm 4 mps 740 mmHg 93%
    01:00 +13°C° 0 mm 4 mps 740 mmHg 93%
    02:00 +12°C° 0 mm 4 mps 740 mmHg 94%
    03:00 +12°C° 0 mm 4 mps 740 mmHg 94%
    04:00 +12°C° 0 mm 3 mps 741 mmHg 95%
    05:00 +12°C° 0 mm 3 mps 741 mmHg 95%
    06:00 +14°C° 0 mm 4 mps 741 mmHg 90%
    07:00 +15°C° 0 mm 4 mps 741 mmHg 85%
    08:00 +18°C° 0 mm 4 mps 742 mmHg 80%
    09:00 +17°C° 0.2 mm 5 mps 742 mmHg 78%
    10:00 +19°C° 0.2 mm 5 mps 742 mmHg 76%
    11:00 +20°C° 0.2 mm 6 mps 742 mmHg 74%
    12:00 +20°C° 0.7 mm 5 mps 743 mmHg 76%
    13:00 +20°C° 0.7 mm 5 mps 743 mmHg 77%
    14:00 +20°C° 0.7 mm 5 mps 743 mmHg 79%
    15:00 +20°C° 0.5 mm 5 mps 743 mmHg 80%
    16:00 +20°C° 0.5 mm 4 mps 743 mmHg 81%
    17:00 +20°C° 0.5 mm 4 mps 743 mmHg 83%
    18:00 +19°C° 0.1 mm 3 mps 743 mmHg 86%
    19:00 +18°C° 0.1 mm 3 mps 744 mmHg 90%
    20:00 +16°C° 0.1 mm 2 mps 744 mmHg 93%
    21:00 +16°C° 0 mm 2 mps 744 mmHg 93%
    22:00 +15°C° 0 mm 2 mps 744 mmHg 94%
    23:00 +14°C° 0 mm 2 mps 744 mmHg 94%

    21 July, Sunday

    Time Temperature Precipitation Wind Pressure Humidity
    00:00 +14°C° 0 mm 2 mps 744 mmHg 95%
    01:00 +14°C° 0 mm 2 mps 744 mmHg 95%
    02:00 +13°C° 0 mm 2 mps 744 mmHg 95%
    03:00 +13°C° 0 mm 2 mps 745 mmHg 96%
    04:00 +13°C° 0 mm 2 mps 745 mmHg 96%
    05:00 +13°C° 0 mm 2 mps 745 mmHg 97%
    06:00 +15°C° 0 mm 2 mps 745 mmHg 93%
    07:00 +16°C° 0 mm 2 mps 745 mmHg 89%
    08:00 +18°C° 0 mm 3 mps 745 mmHg 85%
    09:00 +19°C° 0 mm 3 mps 745 mmHg 79%
    10:00 +20°C° 0 mm 3 mps 745 mmHg 73%
    11:00 +21°C° 0 mm 3 mps 745 mmHg 66%
    12:00 +22°C° 0 mm 3 mps 745 mmHg 66%
    13:00 +22°C° 0 mm 3 mps 745 mmHg 65%
    14:00 +22°C° 0 mm 4 mps 745 mmHg 65%
    15:00 +22°C° 0.1 mm 4 mps 745 mmHg 68%
    16:00 +22°C° 0.1 mm 3 mps 745 mmHg 72%
    17:00 +21°C° 0.1 mm 3 mps 745 mmHg 75%
    18:00 +20°C° 0 mm 3 mps 745 mmHg 80%
    19:00 +18°C° 0 mm 2 mps 745 mmHg 84%
    20:00 +17°C° 0 mm 2 mps 745 mmHg 89%
    21:00 +16°C° 0 mm 2 mps 745 mmHg 90%
    22:00 +15°C° 0 mm 2 mps 745 mmHg 90%
    23:00 +15°C° 0 mm 2 mps 745 mmHg 91%

    22 July, Monday

    Time Temperature Precipitation Wind Pressure Humidity
    00:00 +14°C° 0 mm 1 mps 745 mmHg 91%
    01:00 +14°C° 0 mm 1 mps 745 mmHg 92%
    02:00 +13°C° 0 mm 1 mps 745 mmHg 92%
    03:00 +13°C° 0 mm 1 mps 745 mmHg 93%
    04:00 +13°C° 0 mm 1 mps 745 mmHg 93%
    05:00 +13°C° 0 mm 1 mps 745 mmHg 94%
    06:00 +15°C° 0 mm 1 mps 745 mmHg 89%
    07:00 +18°C° 0 mm 1 mps 745 mmHg 84%
    08:00 +20°C° 0 mm 1 mps 745 mmHg 79%
    09:00 +21°C° 0 mm 1 mps 745 mmHg 73%
    10:00 +22°C° 0 mm 1 mps 745 mmHg 67%
    11:00 +24°C° 0 mm 1 mps 745 mmHg 60%
    12:00 +24°C° 0 mm 1 mps 745 mmHg 57%
    13:00 +24°C° 0 mm 1 mps 745 mmHg 54%
    14:00 +25°C° 0 mm 2 mps 745 mmHg 51%
    15:00 +25°C° 0 mm 2 mps 744 mmHg 54%
    16:00 +25°C° 0 mm 2 mps 744 mmHg 57%
    17:00 +24°C° 0 mm 2 mps 744 mmHg 60%
    18:00 +21°C° 0 mm 2 mps 744 mmHg 65%
    19:00 +19°C° 0 mm 2 mps 744 mmHg 69%
    20:00 +17°C° 0 mm 2 mps 744 mmHg 74%
    21:00 +16°C° 0 mm 2 mps 744 mmHg 76%
    22:00 +15°C° 0 mm 2 mps 744 mmHg 78%
    23:00 +15°C° 0 mm 2 mps 744 mmHg 81%
    Show more